Location: Oberwangen
(47.4286°N, 8.9679°E)
Time: 13:16:31
(UTC+00:00)

Cosmos 1607 - Pass Details

Date: 20 October 2021
Orbit: 918 x 984 km, 65.0° (Epoch: 03 December)

Event Time Altitude Azimuth Distance (km) Brightness Sun altitude
Rises 17:04:06 0° 321° (NW) 3,662 7.5 -7.0°
Reaches altitude 10° 17:06:42 10° 320° (NW) 2,703 6.8 -7.4°
Maximum altitude 17:13:00 75° 237° (WSW) 983 4.2 -8.5°
Drops below altitude 10° 17:19:08 10° 153° (SSE) 2,640 6.1 -9.5°
Sets 17:21:39 0° 151° (SSE) 3,572 6.7 -9.9°
